Location: Newark
(54.6833°N, 25.2833°E)
Time: 18:53:56
(UTC+00:00)

A-11 Canister half - Pass Details

Date: 26 January 2021
Orbit: 1525 x 1684 km, 47.3° (Epoch: 05 March)

Event Time Altitude Azimuth Distance (km) Brightness Sun altitude
Rises 17:55:25 0° 281° (W) 4,737 12.9 -27.1°
Reaches altitude 10° 17:58:46 10° 273° (W) 3,772 12.0 -27.6°
Maximum altitude 18:07:07 36° 212° (SSW) 2,363 10.1 -28.8°
Enters shadow 18:12:44 20° 163° (SSE) 3,119 10.3 -29.6°
